"Pseudo-MPEC" for N00khti

Created 2022 Aug 16 3:22:08 UT using Find_Orb

Click here for an explanation of pseudo-MPECs

 
 Astrometry: 
     N00khti* S2022 08 089)Njdug;n(4sf1.*@+habpTe5:yolY/OaS9]A/Q#C$DT2NOq6Z3`C51
     N00khti  s2022 08 08hRv]QkO1T$r.q/):,#?*X+Y-#*Astrometryw8q^I4c!Ylf4p8vBC51
     N00khti  S2022 08 08H%HeL5J^A]Exgv6^4q-H4b\'NJwgF?i%B_DHun,pQ+H'_0dDTKU$C51
     N00khti  s2022 08 08#vJv?)$NfSBLItWrl_1IUAgMem(kH`nx1jqncvB)OeVS93%+L6.[C51
     N00khti  S2022 08 081u/PikAkQij4a1w7SZAr6Ne$SKPCY2T/u*x@iqI3h]Oy4@,o;Y_iC51
     N00khti  s2022 08 08xcBIn?]slUXju83FaG4EPg3pN\2aBU_+RcyqFYk8h#\c;o0VpxUfC51
     N00khti  S2022 08 08iKnK]UG8nSjW,b#@-o.dQLY!65K4kT4Q_4W-L:K)gatNV]8bcq=yC51
     N00khti  s2022 08 08`BgQHBeyD%gVfH\Zs?4:ch7FZS/+JbklOw;KnJu\;*buW[dqM_-sC51
     N00khti  S2022 08 08s`\$0DIMqyqfIl).,E]cG4BNMOGFi]$y['V/('.yG1EI:S/_kLelC51
     N00khti  s2022 08 08`bA3kB3[k4asDp!LXTsiyw)-,hxY.j?J1-;.tv4f1u_UF:[$HUHGC51
     N00khti  S2022 08 08R+T8t,q\Qk,xGJrx^^/4w4kl9/:a;FoStVK0-p#nqN@ofYXTVQBHC51
     N00khti  s2022 08 08Q5a:)U)L.W(3gi)7Fw/NrX;QkI-Bl/M[Kgd'vHS^%5rGXU^%-mS%C51
     N00khti  S2022 08 08HVqL=mM@SR-qY]?3AE9l[IP:VxG[Xp7OvTB:[G3#m`^Z')\uOqD%C51
     N00khti  s2022 08 081WY[5)L%Z:sV@)Y8v?v0!YGv.@h*tE=U5[SY;nR1JL;^dk#;$tITC51
     N00khti  S2022 08 08]AtK%nJv#_v^mUTaaeegI,r'GN_uwnXrh)R7.Nnm%-`4a!vA=-DIC51
     N00khti  s2022 08 08Y%J-eF^YXV!blJ7;qpH2*c3Zi.xPS!/XLwL0*1fsX$dMvZO.?luyC51
     N00khti  S2022 08 096*wf7SvI%lG+GW5Xwj+VnJ]j^3R#%(#;fT\#-XLf$MqK_a)\QilEC51
     N00khti  s2022 08 099Pjw=redacted;vUB$X8jftGN,t:d!26`MsC$bi#U?GS\D.Y@Km`C51
     N00khti  C2022 08 10y:4_hOID;_*hY'FuK#QjK*'Il:KferLga#/jS+f8MysMtDPKiU/JM22
     N00khti  C2022 08 10XUd^A)VnGw/JayPn^p`eI48DXBI!x3KVB5:dK2?uCctNXXDwnR5lM22
     N00khti  C2022 08 10eWo@/\lf%[ZCT_UsbPq%$E]6CV37.]MYSni5:/nuC7)]FWEPNJTsM22
     N00khti  C2022 08 10bDpW.3E.mR6By6kvNOYN,X%4]YaEXW=i?w#e+pq-`9#9*I5XRo`8M22
     N00khti 2C2022 08 12MeLdyg/WDF$I)/sTqYnNrxwb0)WpA^6m#5Z2lYmlwqZZ54+I\Zu4G40
     N00khti 2C2022 08 1217x;HI\-_*dtdv@wC2tn(.OrC4uYnJnZblu0;1qT;[(Z2HWU5,JqG40
     N00khti 2C2022 08 12:SC]Aq6CeJ+1E;M0g[LHd,Zf=jUInMd!J!Bir227\qI[fPlS1rOXG40
     N00khti 2C2022 08 126uqytxcOIrlk^X(A)+o[HIG@Kvx;8NBdMpjF?.r1SVC6QLA.B#0EG40
     N00khti "C2022 08 12JQJ)e9WaW*XsNX97*$j:l(HT$%dI)os)y9v0So2'CjtZNxKiT+5]G40
     N00khti "C2022 08 12SCa2-e;#^yVwufx)[d0%U^9]6dLkJ;NW^ijlT_Im^%j4kB='-',eG40
     N00khti "C2022 08 12yy!FhuNEZ5ru)?3.0GS,Zmy@cd@=@^w@LroK,3a2_6;%##iKWOC7G40
     N00khti  C2022 08 12.59780902 56 28.622+11 36 05.51   ~8CIq 17.91oVNEOCPT08
     N00khti  C2022 08 12.60395902 56 28.541+11 35 53.09   ~8CIqx17.36oVNEOCPT08
     N00khti  C2022 08 12.60714902 56 28.140+11 35 53.66   ~8CIq 18.06oVNEOCPT08
     N00khti  C2022 08 12.62092002 56 27.478+11 35 37.14   ~8CIq 17.80oVNEOCPT08
     N00khti KC2022 08 13wC2`aR#[jpMqAY^\lwLaPeEUvuxgruy2]+jruDtEqEgQ)#w'P^]#L85
     N00khti KC2022 08 13)5SXgA*c@`r!+G!lhSvk*WuCnUFwjT/2u9uo0Oup!Q!HRX;tek?pL85
     N00khti  C2022 08 13;9pp9H;mWMBK8[QgQ,-UJeJDPoFK39A]Six!%CL'[a2H8?AyNkdRZ21
     N00khti  C2022 08 13joGboru/mXb7Wl6_@%*Cq#KQ/i]S^*;TVjc$I%;ZclickA-p[%hUZ21
     N00khti  C2022 08 13^sxUPpZ\J?3.J)ZsY^B8SVhere4`Mo?;J#h#3?sm!S=@ADJvYwV=Z21
     N00khti :C2022 08 13@nKP(e#Q+?baYuRC',:'tFQqYNMwHuy$gV/rO1[7j0=wSy]nUdhU950
     N00khti :C2022 08 13;_5CffFbhy@UUO(+;=B_M9\'lsOG]q#R18PQ$v9lu3!*=)52F1qN950
     N00khti :C2022 08 13K./='^?e/Bq@4GL8we^rS9WpCl(C$Sq)ai?.(a%OMNg$n%wG?.qS950
     N00khti 2C2022 08 13_X,1;Hk7d[ylw$HL+wn0kMallo=bIp(V3C$X9ovOnBMkRXhB3N]YG40
     N00khti 2C2022 08 13t,v]Vl_8L5'*OP'XE#^rnj*6k'#sd\mqXP'$i?';.b78[o7^S/SDG40
     N00khti 5C2022 08 13nCiuGb9]/d`ktOdUEMqEd0ZGg1KeYoTTpGy2o@WDIvSnIKm35MG\U69
     N00khti 5C2022 08 13liG=T2c4(36\9H+3YO]/)+XTyFiLG%6'6EaforHbv+ufgihrG_W+U69
     N00khti 5C2022 08 13ki9Di\p7;i'v%L^'h42dyShL/iNI3njL8YbbJ#QRT0X88!L$eXrHU69
     N00khti KC2022 08 14*[7X*8kx\q6oYyt6*jo^\a9be$hCPj'2(_t*;0U+%h^yYC%#8`yW104
     N00khti KC2022 08 146Eb@5iR=)Ikg!w#[eb4x_:w2PCn3c0TyT`p7/bXM=UQxum3sR'u)104
     N00khti KC2022 08 14m73j0[$MlXrw7(9IU0%`/Svs_WIhJ:!:J]rR)*X)#/t+HC:3!BV.203
     N00khti KC2022 08 14r*HOS6yGlmL)f$2p\oMlCXn@M'CN#y6u]^J6O#^AK0$7h6aJ_5p(204
     N00khti KC2022 08 14GetlEJymE\QJMZ'eUROYC=I_A.N8ju#mJIlLsEss\%C/_JN;W#Nt203
     N00khti KC2022 08 14x_;`3SQc0xgZjm-jgLlI5QNcF+@u_nME/32=dOMba-0owwuICy8N203
     N00khti KC2022 08 14M!u2uJqiwpR0]IO2wk)8xmaOD]Rg6j;=EjOt:ckqpVT?+@pP#/)p204
     N00khti KC2022 08 14pX:-e'CUC:U3iO(jms;=)o\4i-?mpHc@Z$NE_KU\f0J/9RS`%n#/204
     N00khti KC2022 08 14=:wa!Tqq7yO?D5EyqecutWM(=-vupnimUjd/a(ZR'0ryq%J\CFVsH36
     N00khti 5C2022 08 148qZ5FP)explanation5x8YG@D[MkE,DeoRb;bh!4I64SsJ+1]G2$W88
     N00khti 5C2022 08 14Fm+9*f]F+,RnG:0j;xm+3F$7RitSURy#]%gESgQ`sEa4UQ).D5uEW88
     N00khti KC2022 08 14m2w7`*lm*o*ceL/sm`Yg_t!nL*psw;gcl$$wJq[@UD_'-XuG7,2=H36
     N00khti VC2022 08 14!8!#bOU$Jtv!Dm\I[$*B\%jNAv:8QRnU:Cdr9\CgYD1L[*Op.Z8DH06
     N00khti VC2022 08 149\r5Y2'0dO?%L]w?@t,ysr%.U$dip.\S'qf9SPX(p7/ShNMc[L6-H06
     N00khti VC2022 08 14RD/-MPr[2Kb^7VkhhM8%\Em1s0FyF-QD8FCh?$UDAm6Q^X?1pDnoH06
     N00khti KC2022 08 147YBHYBHfsm\29%T2]/1$VG/:%NLOLtD-A@@ch`\[vHOUW;8@qwM7H36
     N00khti pC2022 08 14,/=[[7Zyx!?rbXwT#LcZBHMwP-i\,rRx,+va%I%g'%d6\kS3/q5\H06
     N00khti pC2022 08 14n?D7:DNlBZRrAWAFD#%.myFXfV)VlRu6iQQ3Yw/mO(4,#4*ZnmM0H06
     N00khti KC2022 08 15.12769702 54 12.21 +10 42 24.8    ~8F7q 17.2 GXNEOCPC95
     N00khti KC2022 08 15.13412102 54 11.82 +10 42 14.8    ~8F7q 17.6 GXNEOCPC95
     N00khti #C2022 08 15lNB3*LCPXrgG$r5]oDQy?_*.Dd7lf]@bJ$hmTFfAnjm)'c'X.RU8U69
     N00khti #C2022 08 15`yV6H\tBDxF3l!Y2B'V60]S8pIFX8bXHXHq:v9^u`KA;+S]2/MwFU69
     N00khti KC2022 08 16Zip]ir[4t)FvT`snyH.JiI/B`v+hs+H,+NHfcvI/L$JyLIG4M6]]L06
     N00khti KC2022 08 162wYqe,#hH%N-SPMpvZR*RL-y`Zjw=OPt:\Q\^V0kc:4@;nMox%B+L06
     N00khti KC2022 08 16X\eH4]%cgSW$*nb:XT#sr7mg_@]]EYB$o.)E+F28XjBLS\*-:#Y+L06

Station data:
(104) San Marcello Pistoiese  (N44.064178 E10.803750)  Italy.  Observers P.
   Bacci, M. Maestripieri. Measurers P. Bacci, L. Tesi, G. Fagioli. 0.60-m
   reflector + CCD.
(203) GiaGa Observatory  (N45.541405 E8.995500)  Italy.  Observers S. Foglia,
   G. Galli. Measurer G. Galli. 0.36-m f/5.76 Schmidt-Cassegrain + CCD.
(204) Schiaparelli Observatory  (N45.867930 E8.770800)  Italy.  Observer L.
   Buzzi. 0.60-m f/4.64 Newtonian + CCD0.84-m f/3.5 reflector + CCD.
(950) La Palma  (N28.760220 W17.882400)  Canary Islands (Spain).  Observers
   O. Vaduvescu, R. Ashley, P. Massana, C. Celma, M. Monelli, M. Rodriguez,
   M. Rodriguez-Alarcon. Measurers C. Boldea, O. Vaduvescu. 2.5-m f/3.3
   reflector + CCD.
(C51) WISE. Measurers A. Mainzer, E. Wright, J. Bauer, T. Grav, J. Dailey, J.
   Masiero, R. Cutri, R. McMillan, R. Walker.
(C95) SATINO Remote Observatory, Haute Provence  (N43.932040 E5.712390)
   France.  Observer J. Jahn. 0.60-m f/3.2 Newtonian reflector + CCD.
(G40) Slooh.com Canary Islands Observatory  (N28.299718 W16.508260)  Canary
   Islands (Spain).  Observers N. Paul, G. Gašparović. Measurers G.
   Gašparović, Y. Chen. 0.43-m f/6.8 Corrected Dall-Kirkham + CCD.
(H06) RAS Observatory, Mayhill  (N32.903322 W105.528700)  US/New
   Mexico.  Observers E. Guido, G. Sostero, V. Gonano, L. Donato. 0.43-m
   f/6.8 astrograph + CCD + f/4.5 focal reducer0.25-m f/3.4 reflector +
   CCD0.50-m f/6.8 reflector + CCD + f/4.5 focal reducer0.10-m f/5.0
   astrograph + CCD.
(H36) Sandlot Observatory, Scranton  (N38.797691 W95.706400)  US/Kansas.
   Observer G. Hug. 0.56-m reflector + CCD.
(L06) Sormano 2 Observatory, Bellagio Via Lattea  (N45.970100 E9.254030)
   Italy.  Observer G. Ventre. Measurers G. Ventre, P. Sicoli. 0.28-m f/10
   reflector + CCD.
(L85) BiAnto Observatory, Lauria  (N40.028871 E15.863250)  Italy.  Observer
   M. Feraco. 0.28-m f/6.3 Schmidt-Cassegrain + CCD.
(M22) ATLAS South Africa, Sutherland  (S32.380156 E20.810590)  South Africa.
(T08) ATLAS-MLO, Mauna Loa  (N19.536150 W155.576050)  US/Hawaii.  Observers
   L. Denneau, A. Heinze, H. Weiland, J. Tonry, H. Flewelling, A.
   Fitzsimmons, D. Young, B. Stalder. Measurers L. Denneau, A. Heinze, J.
   Tonry. 0.5-m f/2.0 Schmidt + CCD.
(U69) iTelescope SRO Observatory, Auberry  (N37.070387 W119.413000)
   US/California.  Observers H. Sato, B. Lütkenhöner. 0.61-m f/6.5 astrograph
   + CCD.
(W88) Slooh.com Chile Observatory, La Dehesa  (S33.269126 W70.534300)  Chile.
    Observer M. Kumrucu-Lohmiller. Measurers B. Lütkenhöner, G. Gašparović,
   Y. Chen, G. Y. Gašparović, M. Kumrucu-Lohmiller, N. Paul, R. W. Anderson.
   0.43-m f/6.8 Corrected Dall- Kirkham + CCD0.35-m f/11.0 Schmidt-Cassegrain
   + CCD.
(Z21) Tenerife-LCO Aqawan A {#}1  (N28.300329 W16.511700)  Canary Islands
   (Spain).  Observers T. Lister, J. Chatelain, E. Gomez, S. Greenstreet.
   Measurer T. Lister. 0.4-m f/8.0 Schmidt-Cassegrain +  CCD.

Orbital elements:  N00khti
   Perihelion 2022 Nov 27.03896 +/- 1.01 TT =  0:56:06 (JD 2459910.53896)
Epoch 2022 Aug 16.0 TT = JDT 2459807.5   Earth MOID: 0.7660   Ju: 0.1313
M 359.33863383 +/- 0.48             (J2000 ecliptic)          AutoNEOCP
n   0.00641860 +/- 0.00454          Peri.  249.33997 +/- 0.39
a  28.6753715 +/- 4.34              Node   205.20343 +/- 0.08
e   0.9441694 +/- 0.0207            Incl.  154.64489 +/- 0.040
P 153.55                   H 13.7   G  0.15   U  9.1
q 1.60096098 +/- 0.00345    Q 55.7497821 +/- 8.68
60 of 62 observations 2022 Aug. 8-16; mean residual 0".41
Residuals in arcseconds: 
220808 C51  .58+  .02-    220812 T08( 3.3+  4.7-)   220814 203  .06+  .36-    
220808 C51( 1.9+  9.3+)   220812 T08  .24-  .29-    220814 204  .01+  .03-    
220808 C51  .34-  1.1+    220812 T08  .41+  .20-    220814 204  .05-  .05-    
220808 C51  .19-  .81+    220813 L85  .15-  .70+    220814 H36  .86-  .23-    
220808 C51  .72+  .82+    220813 L85  .20+  .49+    220814 W88  .47+  .04-    
220808 C51  .88+  .54+    220813 Z21  .05+  .25-    220814 W88  .92+  .37+    
220808 C51  .22+  .31+    220813 Z21  .73-  .29-    220814 H36  .51-  .14-    
